Year,Month,Day,Hour,Minute,Value (Times are PST for temperature in C)
2010,05,30,00,00,9.80
2010,05,30,00,01,9.80
2010,05,30,00,02,9.70
2010,05,30,00,03,9.70
2010,05,30,00,04,9.70
2010,05,30,00,05,9.70
2010,05,30,00,06,9.70
2010,05,30,00,07,9.70
2010,05,30,00,08,9.70
2010,05,30,00,09,9.70
2010,05,30,00,10,9.70
2010,05,30,00,11,9.70
2010,05,30,00,12,9.70
2010,05,30,00,13,9.70
2010,05,30,00,14,9.70
2010,05,30,00,15,9.70
2010,05,30,00,16,9.70
2010,05,30,00,17,9.70
2010,05,30,00,18,9.70
2010,05,30,00,19,9.70
2010,05,30,00,20,9.70
2010,05,30,00,21,9.70
2010,05,30,00,22,9.70
2010,05,30,00,23,9.70
2010,05,30,00,24,9.80
2010,05,30,00,25,9.80
2010,05,30,00,26,9.80
2010,05,30,00,27,9.80
2010,05,30,00,28,9.80
2010,05,30,00,29,9.80
2010,05,30,00,30,9.70
2010,05,30,00,31,9.70
2010,05,30,00,32,9.70
2010,05,30,00,33,9.70
2010,05,30,00,34,9.70
2010,05,30,00,35,9.70
2010,05,30,00,36,9.70
2010,05,30,00,37,9.70
2010,05,30,00,38,9.70
2010,05,30,00,39,9.70
2010,05,30,00,40,9.60
2010,05,30,00,41,9.60
2010,05,30,00,42,9.60
2010,05,30,00,43,9.50
2010,05,30,00,44,9.50
2010,05,30,00,45,9.50
2010,05,30,00,46,9.50
2010,05,30,00,47,9.40
2010,05,30,00,48,9.40
2010,05,30,00,49,9.40
2010,05,30,00,50,9.40
2010,05,30,00,51,9.30
2010,05,30,00,52,9.30
2010,05,30,00,53,9.30
2010,05,30,00,54,9.20
2010,05,30,00,55,9.20
2010,05,30,00,56,9.20
2010,05,30,00,57,9.10
2010,05,30,00,58,9.00
2010,05,30,00,59,9.00
2010,05,30,01,00,9.00
2010,05,30,01,01,8.90
2010,05,30,01,02,8.90
2010,05,30,01,03,8.90
2010,05,30,01,04,8.90
2010,05,30,01,05,8.90
2010,05,30,01,06,8.90
2010,05,30,01,07,8.80
2010,05,30,01,08,8.80
2010,05,30,01,09,8.80
2010,05,30,01,10,8.70
2010,05,30,01,11,8.70
2010,05,30,01,12,8.70
2010,05,30,01,13,8.70
2010,05,30,01,14,8.70
2010,05,30,01,15,8.70
2010,05,30,01,16,8.70
2010,05,30,01,17,8.70
2010,05,30,01,18,8.70
2010,05,30,01,19,8.70
2010,05,30,01,20,8.70
2010,05,30,01,21,8.70
2010,05,30,01,22,8.60
2010,05,30,01,23,8.60
2010,05,30,01,24,8.50
2010,05,30,01,25,8.50
2010,05,30,01,26,8.50
2010,05,30,01,27,8.40
2010,05,30,01,28,8.40
2010,05,30,01,29,8.30
2010,05,30,01,30,8.30
2010,05,30,01,31,8.20
2010,05,30,01,32,8.20
2010,05,30,01,33,8.10
2010,05,30,01,34,8.10
2010,05,30,01,35,8.10
2010,05,30,01,36,8.10
2010,05,30,01,37,8.10
2010,05,30,01,38,8.10
2010,05,30,01,39,8.10
2010,05,30,01,40,8.10
2010,05,30,01,41,8.10
2010,05,30,01,42,8.10
2010,05,30,01,43,8.10
2010,05,30,01,44,8.20
2010,05,30,01,45,8.20
2010,05,30,01,46,8.10
2010,05,30,01,47,8.10
2010,05,30,01,48,8.10
2010,05,30,01,49,8.10
2010,05,30,01,50,8.10
2010,05,30,01,51,8.10
2010,05,30,01,52,8.10
2010,05,30,01,53,8.10
2010,05,30,01,54,8.10
2010,05,30,01,55,8.10
2010,05,30,01,56,8.10
2010,05,30,01,57,8.10
2010,05,30,01,58,8.00
2010,05,30,01,59,8.00
2010,05,30,02,00,8.00
2010,05,30,02,01,8.00
2010,05,30,02,02,8.00
2010,05,30,02,03,8.00
2010,05,30,02,04,8.10
2010,05,30,02,05,8.10
2010,05,30,02,06,8.10
2010,05,30,02,07,8.10
2010,05,30,02,08,8.00
2010,05,30,02,09,8.00
2010,05,30,02,10,8.00
2010,05,30,02,11,7.90
2010,05,30,02,12,7.90
2010,05,30,02,13,7.90
2010,05,30,02,14,7.80
2010,05,30,02,15,7.80
2010,05,30,02,16,7.80
2010,05,30,02,17,7.70
2010,05,30,02,18,7.70
2010,05,30,02,19,7.60
2010,05,30,02,20,7.60
2010,05,30,02,21,7.50
2010,05,30,02,22,7.40
2010,05,30,02,23,7.30
2010,05,30,02,24,7.30
2010,05,30,02,25,7.30
2010,05,30,02,26,7.20
2010,05,30,02,27,7.20
2010,05,30,02,28,7.10
2010,05,30,02,29,7.10
2010,05,30,02,30,7.00
2010,05,30,02,31,7.00
2010,05,30,02,32,6.90
2010,05,30,02,33,6.90
2010,05,30,02,34,6.80
2010,05,30,02,35,6.80
2010,05,30,02,36,6.80
2010,05,30,02,37,6.80
2010,05,30,02,38,6.70
2010,05,30,02,39,6.70
2010,05,30,02,40,6.70
2010,05,30,02,41,6.70
2010,05,30,02,42,6.60
2010,05,30,02,43,6.60
2010,05,30,02,44,6.60
2010,05,30,02,45,6.60
2010,05,30,02,46,6.60
2010,05,30,02,47,6.60
2010,05,30,02,48,6.50
2010,05,30,02,49,6.40
2010,05,30,02,50,6.40
2010,05,30,02,51,6.40
2010,05,30,02,52,6.40
2010,05,30,02,53,6.40
2010,05,30,02,54,6.30
2010,05,30,02,55,6.30
2010,05,30,02,56,6.30
2010,05,30,02,57,6.30
2010,05,30,02,58,6.30
2010,05,30,02,59,6.30
2010,05,30,03,00,6.30
2010,05,30,03,01,6.30
2010,05,30,03,02,6.30
2010,05,30,03,03,6.30
2010,05,30,03,04,6.30
2010,05,30,03,05,6.30
2010,05,30,03,06,6.20
2010,05,30,03,07,6.20
2010,05,30,03,08,6.20
2010,05,30,03,09,6.20
2010,05,30,03,10,6.20
2010,05,30,03,11,6.20
2010,05,30,03,12,6.20
2010,05,30,03,13,6.20
2010,05,30,03,14,6.20
2010,05,30,03,15,6.20
2010,05,30,03,16,6.20
2010,05,30,03,17,6.20
2010,05,30,03,18,6.30
2010,05,30,03,19,6.30
2010,05,30,03,20,6.30
2010,05,30,03,21,6.30
2010,05,30,03,22,6.30
2010,05,30,03,23,6.30
2010,05,30,03,24,6.30
2010,05,30,03,25,6.30
2010,05,30,03,26,6.30
2010,05,30,03,27,6.30
2010,05,30,03,28,6.30
2010,05,30,03,29,6.20
2010,05,30,03,30,6.20
2010,05,30,03,31,6.20
2010,05,30,03,32,6.20
2010,05,30,03,33,6.20
2010,05,30,03,34,6.20
2010,05,30,03,35,6.20
2010,05,30,03,36,6.20
2010,05,30,03,37,6.20
2010,05,30,03,38,6.20
2010,05,30,03,39,6.10
2010,05,30,03,40,6.10
2010,05,30,03,41,6.10
2010,05,30,03,42,6.00
2010,05,30,03,43,6.00
2010,05,30,03,44,6.00
2010,05,30,03,45,6.00
2010,05,30,03,46,6.00
2010,05,30,03,47,6.00
2010,05,30,03,48,6.00
2010,05,30,03,49,6.00
2010,05,30,03,50,6.00
2010,05,30,03,51,6.00
2010,05,30,03,52,6.00
2010,05,30,03,53,6.10
2010,05,30,03,54,6.10
2010,05,30,03,55,6.10
2010,05,30,03,56,6.10
2010,05,30,03,57,6.00
2010,05,30,03,58,6.00
2010,05,30,03,59,6.00
2010,05,30,04,00,6.00
2010,05,30,04,01,5.90
2010,05,30,04,02,5.90
2010,05,30,04,03,5.80
2010,05,30,04,04,5.80
2010,05,30,04,05,5.80
2010,05,30,04,06,5.90
2010,05,30,04,07,5.90
2010,05,30,04,08,6.00
2010,05,30,04,09,6.00
2010,05,30,04,10,6.10
2010,05,30,04,11,6.10
2010,05,30,04,12,6.10
2010,05,30,04,13,6.10
2010,05,30,04,14,6.10
2010,05,30,04,15,6.10
2010,05,30,04,16,6.10
2010,05,30,04,17,6.10
2010,05,30,04,18,6.00
2010,05,30,04,19,6.00
2010,05,30,04,20,6.00
2010,05,30,04,21,6.00
2010,05,30,04,22,6.00
2010,05,30,04,23,5.90
2010,05,30,04,24,5.80
2010,05,30,04,25,5.80
2010,05,30,04,26,5.70
2010,05,30,04,27,5.80
2010,05,30,04,28,5.80
2010,05,30,04,29,5.90
2010,05,30,04,30,5.90
2010,05,30,04,31,5.90
2010,05,30,04,32,5.90
2010,05,30,04,33,5.90
2010,05,30,04,34,5.90
2010,05,30,04,35,5.90
2010,05,30,04,36,5.90
2010,05,30,04,37,5.90
2010,05,30,04,38,5.80
2010,05,30,04,39,5.80
2010,05,30,04,40,5.80
2010,05,30,04,41,5.70
2010,05,30,04,42,5.70
2010,05,30,04,43,5.70
2010,05,30,04,44,5.70
2010,05,30,04,45,5.70
2010,05,30,04,46,5.70
2010,05,30,04,47,5.70
2010,05,30,04,48,5.70
2010,05,30,04,49,5.60
2010,05,30,04,50,5.60
2010,05,30,04,51,5.60
2010,05,30,04,52,5.50
2010,05,30,04,53,5.50
2010,05,30,04,54,5.40
2010,05,30,04,55,5.40
2010,05,30,04,56,5.40
2010,05,30,04,57,5.30
2010,05,30,04,58,5.30
2010,05,30,04,59,5.30
2010,05,30,05,00,5.30
2010,05,30,05,01,5.30
2010,05,30,05,02,5.30
2010,05,30,05,03,5.30
2010,05,30,05,04,5.30
2010,05,30,05,05,5.30
2010,05,30,05,06,5.30
2010,05,30,05,07,5.30
2010,05,30,05,08,5.30
2010,05,30,05,09,5.30
2010,05,30,05,10,5.30
2010,05,30,05,11,5.30
2010,05,30,05,12,5.30
2010,05,30,05,13,5.30
2010,05,30,05,14,5.30
2010,05,30,05,15,5.30
2010,05,30,05,16,5.30
2010,05,30,05,17,5.30
2010,05,30,05,18,5.30
2010,05,30,05,19,5.30
2010,05,30,05,20,5.30
2010,05,30,05,21,5.30
2010,05,30,05,22,5.30
2010,05,30,05,23,5.30
2010,05,30,05,24,5.30
2010,05,30,05,25,5.30
2010,05,30,05,26,5.30
2010,05,30,05,27,5.30
2010,05,30,05,28,5.30
2010,05,30,05,29,5.30
2010,05,30,05,30,5.30
2010,05,30,05,31,5.30
2010,05,30,05,32,5.30
2010,05,30,05,33,5.30
2010,05,30,05,34,5.30
2010,05,30,05,35,5.40
2010,05,30,05,36,5.50
2010,05,30,05,37,5.50
2010,05,30,05,38,5.50
2010,05,30,05,39,5.50
2010,05,30,05,40,5.50
2010,05,30,05,41,5.50
2010,05,30,05,42,5.50
2010,05,30,05,43,5.50
2010,05,30,05,44,5.50
2010,05,30,05,45,5.50
2010,05,30,05,46,5.50
2010,05,30,05,47,5.50
2010,05,30,05,48,5.50
2010,05,30,05,49,5.50
2010,05,30,05,50,5.50
2010,05,30,05,51,5.60
2010,05,30,05,52,5.60
2010,05,30,05,53,5.60
2010,05,30,05,54,5.60
2010,05,30,05,55,5.60
2010,05,30,05,56,5.60
2010,05,30,05,57,5.60
2010,05,30,05,58,5.60
2010,05,30,05,59,5.60
2010,05,30,06,00,5.70
2010,05,30,06,01,5.70
2010,05,30,06,02,5.70
2010,05,30,06,03,5.70
2010,05,30,06,04,5.70
2010,05,30,06,05,5.70
2010,05,30,06,06,5.60
2010,05,30,06,07,5.60
2010,05,30,06,08,5.70
2010,05,30,06,09,5.70
2010,05,30,06,10,5.70
2010,05,30,06,11,5.70
2010,05,30,06,12,5.70
2010,05,30,06,13,5.70
2010,05,30,06,14,5.70
2010,05,30,06,15,5.70
2010,05,30,06,16,5.70
2010,05,30,06,17,5.70
2010,05,30,06,18,5.70
2010,05,30,06,19,5.70
2010,05,30,06,20,5.70
2010,05,30,06,21,5.70
2010,05,30,06,22,5.70
2010,05,30,06,23,5.80
2010,05,30,06,24,5.80
2010,05,30,06,25,5.80
2010,05,30,06,26,5.80
2010,05,30,06,27,5.90
2010,05,30,06,28,5.90
2010,05,30,06,29,5.90
2010,05,30,06,30,6.00
2010,05,30,06,31,6.00
2010,05,30,06,32,6.00
2010,05,30,06,33,6.00
2010,05,30,06,34,6.00
2010,05,30,06,35,6.10
2010,05,30,06,36,6.10
2010,05,30,06,37,6.10
2010,05,30,06,38,6.20
2010,05,30,06,39,6.20
2010,05,30,06,40,6.20
2010,05,30,06,41,6.20
2010,05,30,06,42,6.20
2010,05,30,06,43,6.20
2010,05,30,06,44,6.30
2010,05,30,06,45,6.30
2010,05,30,06,46,6.40
2010,05,30,06,47,6.40
2010,05,30,06,48,6.40
2010,05,30,06,49,6.50
2010,05,30,06,50,6.60
2010,05,30,06,51,6.60
2010,05,30,06,52,6.60
2010,05,30,06,53,6.60
2010,05,30,06,54,6.60
2010,05,30,06,55,6.70
2010,05,30,06,56,6.70
2010,05,30,06,57,6.70
2010,05,30,06,58,6.70
2010,05,30,06,59,6.80
2010,05,30,07,00,6.80
2010,05,30,07,01,6.90
2010,05,30,07,02,6.90
2010,05,30,07,03,7.00
2010,05,30,07,04,7.10
2010,05,30,07,05,7.20
2010,05,30,07,06,7.30
2010,05,30,07,07,7.40
2010,05,30,07,08,7.50
2010,05,30,07,09,7.60
2010,05,30,07,10,7.80
2010,05,30,07,11,7.90
2010,05,30,07,12,8.00
2010,05,30,07,13,8.00
2010,05,30,07,14,8.10
2010,05,30,07,15,8.20
2010,05,30,07,16,8.20
2010,05,30,07,17,8.20
2010,05,30,07,18,8.20
2010,05,30,07,19,8.20
2010,05,30,07,20,8.30
2010,05,30,07,21,8.30
2010,05,30,07,22,8.30
2010,05,30,07,23,8.40
2010,05,30,07,24,8.40
2010,05,30,07,25,8.40
2010,05,30,07,26,8.50
2010,05,30,07,27,8.50
2010,05,30,07,28,8.50
2010,05,30,07,29,8.50
2010,05,30,07,30,8.60
2010,05,30,07,31,8.60
2010,05,30,07,32,8.60
2010,05,30,07,33,8.70
2010,05,30,07,34,8.70
2010,05,30,07,35,8.70
2010,05,30,07,36,8.70
2010,05,30,07,37,8.80
2010,05,30,07,38,8.80
2010,05,30,07,39,8.80
2010,05,30,07,40,8.90
2010,05,30,07,41,8.90
2010,05,30,07,42,9.00
2010,05,30,07,43,9.00
2010,05,30,07,44,9.10
2010,05,30,07,45,9.20
2010,05,30,07,46,9.20
2010,05,30,07,47,9.20
2010,05,30,07,48,9.20
2010,05,30,07,49,9.30
2010,05,30,07,50,9.30
2010,05,30,07,51,9.40
2010,05,30,07,52,9.50
2010,05,30,07,53,9.60
2010,05,30,07,54,9.60
2010,05,30,07,55,9.70
2010,05,30,07,56,9.70
2010,05,30,07,57,9.70
2010,05,30,07,58,9.80
2010,05,30,07,59,9.90
2010,05,30,08,00,9.90
2010,05,30,08,01,9.90
2010,05,30,08,02,10.00
2010,05,30,08,03,10.10
2010,05,30,08,04,10.10
2010,05,30,08,05,10.10
2010,05,30,08,06,10.10
2010,05,30,08,07,10.20
2010,05,30,08,08,10.30
2010,05,30,08,09,10.40
2010,05,30,08,10,10.40
2010,05,30,08,11,10.60
2010,05,30,08,12,10.60
2010,05,30,08,13,10.60
2010,05,30,08,14,10.70
2010,05,30,08,15,10.70
2010,05,30,08,16,10.70
2010,05,30,08,17,10.70
2010,05,30,08,18,10.70
2010,05,30,08,19,10.70
2010,05,30,08,20,10.80
2010,05,30,08,21,10.80
2010,05,30,08,22,10.80
2010,05,30,08,23,10.80
2010,05,30,08,24,10.80
2010,05,30,08,25,10.80
2010,05,30,08,26,10.80
2010,05,30,08,27,10.80
2010,05,30,08,28,10.80
2010,05,30,08,29,10.80
2010,05,30,08,30,10.80
2010,05,30,08,31,10.80
2010,05,30,08,32,10.80
2010,05,30,08,33,10.90
2010,05,30,08,34,10.90
2010,05,30,08,35,10.90
2010,05,30,08,36,10.90
2010,05,30,08,37,10.90
2010,05,30,08,38,10.90
2010,05,30,08,39,10.90
2010,05,30,08,40,10.90
2010,05,30,08,41,11.10
2010,05,30,08,42,11.10
2010,05,30,08,43,11.10
2010,05,30,08,44,11.10
2010,05,30,08,45,11.10
2010,05,30,08,46,11.10
2010,05,30,08,47,11.10
2010,05,30,08,48,11.20
2010,05,30,08,49,11.20
2010,05,30,08,50,11.20
2010,05,30,08,51,11.30
2010,05,30,08,52,11.40
2010,05,30,08,53,11.40
2010,05,30,08,54,11.50
2010,05,30,08,55,11.60
2010,05,30,08,56,11.60
2010,05,30,08,57,11.60
2010,05,30,08,58,11.60
2010,05,30,08,59,11.60
2010,05,30,09,00,11.60
2010,05,30,09,01,11.60
2010,05,30,09,02,11.60
2010,05,30,09,03,11.60
2010,05,30,09,04,11.70
2010,05,30,09,05,11.70
2010,05,30,09,06,11.70
2010,05,30,09,07,11.60
2010,05,30,09,08,11.60
2010,05,30,09,09,11.60
2010,05,30,09,10,11.60
2010,05,30,09,11,11.70
2010,05,30,09,12,11.70
2010,05,30,09,13,11.60
2010,05,30,09,14,11.70
2010,05,30,09,15,11.70
2010,05,30,09,16,11.70
2010,05,30,09,17,11.80
2010,05,30,09,18,11.70
2010,05,30,09,19,11.70
2010,05,30,09,20,11.60
2010,05,30,09,21,11.60
2010,05,30,09,22,11.60
2010,05,30,09,23,11.60
2010,05,30,09,24,11.60
2010,05,30,09,25,11.60
2010,05,30,09,26,11.60
2010,05,30,09,27,11.60
2010,05,30,09,28,11.70
2010,05,30,09,29,11.70
2010,05,30,09,30,11.70
2010,05,30,09,31,11.80
2010,05,30,09,32,11.80
2010,05,30,09,33,11.80
2010,05,30,09,34,11.80
2010,05,30,09,35,11.80
2010,05,30,09,36,11.80
2010,05,30,09,37,11.80
2010,05,30,09,38,11.80
2010,05,30,09,39,11.80
2010,05,30,09,40,11.80
2010,05,30,09,41,11.80
2010,05,30,09,42,11.90
2010,05,30,09,43,11.90
2010,05,30,09,44,11.90
2010,05,30,09,45,11.90
2010,05,30,09,46,11.80
2010,05,30,09,47,11.80
2010,05,30,09,48,11.90
2010,05,30,09,49,11.90
2010,05,30,09,50,11.90
2010,05,30,09,51,11.80
2010,05,30,09,52,11.80
2010,05,30,09,53,11.80
2010,05,30,09,54,11.80
2010,05,30,09,55,11.80
2010,05,30,09,56,11.80
2010,05,30,09,57,11.80
2010,05,30,09,58,11.80
2010,05,30,09,59,11.70
2010,05,30,10,00,11.60
2010,05,30,10,01,11.60
2010,05,30,10,02,11.60
2010,05,30,10,03,11.60
2010,05,30,10,04,11.60
2010,05,30,10,05,11.60
2010,05,30,10,06,11.60
2010,05,30,10,07,11.60
2010,05,30,10,08,11.60
2010,05,30,10,09,11.60
2010,05,30,10,10,11.60
2010,05,30,10,11,11.50
2010,05,30,10,12,11.50
2010,05,30,10,13,11.60
2010,05,30,10,14,11.60
2010,05,30,10,15,11.70
2010,05,30,10,16,11.80
2010,05,30,10,17,11.80
2010,05,30,10,18,11.80
2010,05,30,10,19,11.90
2010,05,30,10,20,11.90
2010,05,30,10,21,11.90
2010,05,30,10,22,11.90
2010,05,30,10,23,12.00
2010,05,30,10,24,12.00
2010,05,30,10,25,12.00
2010,05,30,10,26,12.00
2010,05,30,10,27,12.00
2010,05,30,10,28,12.00
2010,05,30,10,29,12.00
2010,05,30,10,30,12.00
2010,05,30,10,31,11.90
2010,05,30,10,32,11.90
2010,05,30,10,33,11.90
2010,05,30,10,34,11.90
2010,05,30,10,35,11.90
2010,05,30,10,36,12.00
2010,05,30,10,37,11.90
2010,05,30,10,38,11.90
2010,05,30,10,39,12.00
2010,05,30,10,40,12.00
2010,05,30,10,41,11.90
2010,05,30,10,42,11.80
2010,05,30,10,43,11.80
2010,05,30,10,44,11.80
2010,05,30,10,45,11.90
2010,05,30,10,46,12.00
2010,05,30,10,47,12.10
2010,05,30,10,48,12.20
2010,05,30,10,49,12.10
2010,05,30,10,50,12.10
2010,05,30,10,51,12.00
2010,05,30,10,52,12.00
2010,05,30,10,53,12.00
2010,05,30,10,54,12.00
2010,05,30,10,55,12.00
2010,05,30,10,56,12.10
2010,05,30,10,57,12.10
2010,05,30,10,58,12.20
2010,05,30,10,59,12.20
2010,05,30,11,00,12.10
2010,05,30,11,01,12.00
2010,05,30,11,02,12.00
2010,05,30,11,03,12.00
2010,05,30,11,04,12.00
2010,05,30,11,05,12.00
2010,05,30,11,06,12.00
2010,05,30,11,07,12.00
2010,05,30,11,08,11.90
2010,05,30,11,09,11.90
2010,05,30,11,10,11.80
2010,05,30,11,11,11.90
2010,05,30,11,12,12.00
2010,05,30,11,13,12.10
2010,05,30,11,14,12.10
2010,05,30,11,15,12.10
2010,05,30,11,16,12.10
2010,05,30,11,17,12.10
2010,05,30,11,18,12.10
2010,05,30,11,19,12.10
2010,05,30,11,20,12.20
2010,05,30,11,21,12.20
2010,05,30,11,22,12.20
2010,05,30,11,23,12.30
2010,05,30,11,24,12.30
2010,05,30,11,25,12.30
2010,05,30,11,26,12.30
2010,05,30,11,27,12.30
2010,05,30,11,28,12.30
2010,05,30,11,29,12.30
2010,05,30,11,30,12.30
2010,05,30,11,31,12.40
2010,05,30,11,32,12.40
2010,05,30,11,33,12.40
2010,05,30,11,34,12.40
2010,05,30,11,35,12.30
2010,05,30,11,36,12.30
2010,05,30,11,37,12.40
2010,05,30,11,38,12.50
2010,05,30,11,39,12.50
2010,05,30,11,40,12.60
2010,05,30,11,41,12.60
2010,05,30,11,42,12.70
2010,05,30,11,43,12.80
2010,05,30,11,44,12.80
2010,05,30,11,45,12.80
2010,05,30,11,46,12.70
2010,05,30,11,47,12.70
2010,05,30,11,48,12.50
2010,05,30,11,49,12.40
2010,05,30,11,50,12.50
2010,05,30,11,51,12.50
2010,05,30,11,52,12.40
2010,05,30,11,53,12.50
2010,05,30,11,54,12.50
2010,05,30,11,55,12.60
2010,05,30,11,56,12.70
2010,05,30,11,57,12.80
2010,05,30,11,58,12.70
2010,05,30,11,59,12.60
2010,05,30,12,00,12.60
2010,05,30,12,01,12.50
2010,05,30,12,02,12.50
2010,05,30,12,03,12.50
2010,05,30,12,04,12.50
2010,05,30,12,05,12.50
2010,05,30,12,06,12.50
2010,05,30,12,07,12.60
2010,05,30,12,08,12.60
2010,05,30,12,09,12.60
2010,05,30,12,10,12.50
2010,05,30,12,11,12.50
2010,05,30,12,12,12.50
2010,05,30,12,13,12.60
2010,05,30,12,14,12.60
2010,05,30,12,15,12.60
2010,05,30,12,16,12.60
2010,05,30,12,17,12.70
2010,05,30,12,18,12.70
2010,05,30,12,19,12.70
2010,05,30,12,20,12.70
2010,05,30,12,21,12.60
2010,05,30,12,22,12.50
2010,05,30,12,23,12.40
2010,05,30,12,24,12.30
2010,05,30,12,25,12.30
2010,05,30,12,26,12.30
2010,05,30,12,27,12.30
2010,05,30,12,28,12.30
2010,05,30,12,29,12.30
2010,05,30,12,30,12.40
2010,05,30,12,31,12.40
2010,05,30,12,32,12.30
2010,05,30,12,33,12.30
2010,05,30,12,34,12.30
2010,05,30,12,35,12.20
2010,05,30,12,36,12.20
2010,05,30,12,37,12.20
2010,05,30,12,38,12.20
2010,05,30,12,39,12.20
2010,05,30,12,40,12.20
2010,05,30,12,41,12.20
2010,05,30,12,42,12.20
2010,05,30,12,43,12.20
2010,05,30,12,44,12.10
2010,05,30,12,45,12.10
2010,05,30,12,46,12.10
2010,05,30,12,47,12.10
2010,05,30,12,48,12.20
2010,05,30,12,49,12.30
2010,05,30,12,50,12.30
2010,05,30,12,51,12.40
2010,05,30,12,52,12.40
2010,05,30,12,53,12.40
2010,05,30,12,54,12.50
2010,05,30,12,55,12.40
2010,05,30,12,56,12.40
2010,05,30,12,57,12.30
2010,05,30,12,58,12.40
2010,05,30,12,59,12.50
2010,05,30,13,00,12.50
2010,05,30,13,01,12.60
2010,05,30,13,02,12.70
2010,05,30,13,03,12.70
2010,05,30,13,04,12.80
2010,05,30,13,05,12.70
2010,05,30,13,06,12.70
2010,05,30,13,07,12.80
2010,05,30,13,08,12.80
2010,05,30,13,09,12.70
2010,05,30,13,10,12.60
2010,05,30,13,11,12.50
2010,05,30,13,12,12.60
2010,05,30,13,13,12.60
2010,05,30,13,14,12.60
2010,05,30,13,15,12.70
2010,05,30,13,16,12.70
2010,05,30,13,17,12.80
2010,05,30,13,18,12.80
2010,05,30,13,19,12.80
2010,05,30,13,20,12.90
2010,05,30,13,21,12.80
2010,05,30,13,22,12.70
2010,05,30,13,23,12.70
2010,05,30,13,24,12.80
2010,05,30,13,25,12.90
2010,05,30,13,26,12.90
2010,05,30,13,27,12.90
2010,05,30,13,28,12.90
2010,05,30,13,29,12.90
2010,05,30,13,30,12.90
2010,05,30,13,31,13.00
2010,05,30,13,32,13.00
2010,05,30,13,33,12.90
2010,05,30,13,34,13.00
2010,05,30,13,35,13.00
2010,05,30,13,36,12.90
2010,05,30,13,37,13.00
2010,05,30,13,38,12.90
2010,05,30,13,39,13.00
2010,05,30,13,40,13.00
2010,05,30,13,41,13.00
2010,05,30,13,42,13.00
2010,05,30,13,43,13.00
2010,05,30,13,44,13.00
2010,05,30,13,45,13.10
2010,05,30,13,46,13.10
2010,05,30,13,47,13.10
2010,05,30,13,48,13.20
2010,05,30,13,49,13.20
2010,05,30,13,50,13.30
2010,05,30,13,51,13.30
2010,05,30,13,52,13.10
2010,05,30,13,53,13.10
2010,05,30,13,54,13.20
2010,05,30,13,55,13.20
2010,05,30,13,56,13.10
2010,05,30,13,57,13.00
2010,05,30,13,58,13.00
2010,05,30,13,59,12.90
2010,05,30,14,00,12.90
2010,05,30,14,01,12.90
2010,05,30,14,02,12.80
2010,05,30,14,03,12.80
2010,05,30,14,04,12.70
2010,05,30,14,05,12.60
2010,05,30,14,06,12.60
2010,05,30,14,07,12.60
2010,05,30,14,08,12.60
2010,05,30,14,09,12.70
2010,05,30,14,10,12.80
2010,05,30,14,11,12.80
2010,05,30,14,12,12.90
2010,05,30,14,13,13.00
2010,05,30,14,14,13.00
2010,05,30,14,15,13.10
2010,05,30,14,16,13.00
2010,05,30,14,17,13.00
2010,05,30,14,18,12.90
2010,05,30,14,19,12.90
2010,05,30,14,20,12.90
2010,05,30,14,21,12.90
2010,05,30,14,22,13.00
2010,05,30,14,23,13.00
2010,05,30,14,24,13.00
2010,05,30,14,25,13.10
2010,05,30,14,26,13.10
2010,05,30,14,27,13.10
2010,05,30,14,28,13.00
2010,05,30,14,29,13.00
2010,05,30,14,30,13.00
2010,05,30,14,31,13.10
2010,05,30,14,32,13.10
2010,05,30,14,33,13.00
2010,05,30,14,34,12.80
2010,05,30,14,35,12.80
2010,05,30,14,36,12.80
2010,05,30,14,37,12.70
2010,05,30,14,38,12.60
2010,05,30,14,39,12.50
2010,05,30,14,40,12.50
2010,05,30,14,41,12.40
2010,05,30,14,42,12.30
2010,05,30,14,43,12.30
2010,05,30,14,44,12.30
2010,05,30,14,45,12.30
2010,05,30,14,46,12.40
2010,05,30,14,47,12.30
2010,05,30,14,48,12.30
2010,05,30,14,49,12.30
2010,05,30,14,50,12.30
2010,05,30,14,51,12.30
2010,05,30,14,52,12.30
2010,05,30,14,53,12.30
2010,05,30,14,54,12.40
2010,05,30,14,55,12.40
2010,05,30,14,56,12.40
2010,05,30,14,57,12.40
2010,05,30,14,58,12.40
2010,05,30,14,59,12.50
2010,05,30,15,00,12.40
2010,05,30,15,01,12.40
2010,05,30,15,02,12.40
2010,05,30,15,03,12.30
2010,05,30,15,04,12.30
2010,05,30,15,05,12.30
2010,05,30,15,06,12.40
2010,05,30,15,07,12.40
2010,05,30,15,08,12.40
2010,05,30,15,09,12.40
2010,05,30,15,10,12.50
2010,05,30,15,11,12.50
2010,05,30,15,12,12.50
2010,05,30,15,13,12.60
2010,05,30,15,14,12.60
2010,05,30,15,15,12.60
2010,05,30,15,16,12.60
2010,05,30,15,17,12.50
2010,05,30,15,18,12.50
2010,05,30,15,19,12.40
2010,05,30,15,20,12.50
2010,05,30,15,21,12.50
2010,05,30,15,22,12.50
2010,05,30,15,23,12.50
2010,05,30,15,24,12.50
2010,05,30,15,25,12.50
2010,05,30,15,26,12.50
2010,05,30,15,27,12.40
2010,05,30,15,28,12.40
2010,05,30,15,29,12.40
2010,05,30,15,30,12.40
2010,05,30,15,31,12.40
2010,05,30,15,32,12.40
2010,05,30,15,33,12.30
2010,05,30,15,34,12.40
2010,05,30,15,35,12.40
2010,05,30,15,36,12.40
2010,05,30,15,37,12.40
2010,05,30,15,38,12.30
2010,05,30,15,39,12.30
2010,05,30,15,40,12.30
2010,05,30,15,41,12.30
2010,05,30,15,42,12.30
2010,05,30,15,43,12.30
2010,05,30,15,44,12.30
2010,05,30,15,45,12.40
2010,05,30,15,46,12.40
2010,05,30,15,47,12.50
2010,05,30,15,48,12.50
2010,05,30,15,49,12.60
2010,05,30,15,50,12.60
2010,05,30,15,51,12.50
2010,05,30,15,52,12.50
2010,05,30,15,53,12.50
2010,05,30,15,54,12.60
2010,05,30,15,55,12.60
2010,05,30,15,56,12.60
2010,05,30,15,57,12.50
2010,05,30,15,58,12.50
2010,05,30,15,59,12.50
2010,05,30,16,00,12.50
2010,05,30,16,01,12.50
2010,05,30,16,02,12.40
2010,05,30,16,03,12.50
2010,05,30,16,04,12.50
2010,05,30,16,05,12.50
2010,05,30,16,06,12.50
2010,05,30,16,07,12.40
2010,05,30,16,08,12.40
2010,05,30,16,09,12.30
2010,05,30,16,10,12.30
2010,05,30,16,11,12.30
2010,05,30,16,12,12.20
2010,05,30,16,13,12.20
2010,05,30,16,14,12.10
2010,05,30,16,15,12.10
2010,05,30,16,16,12.10
2010,05,30,16,17,12.10
2010,05,30,16,18,12.10
2010,05,30,16,19,12.10
2010,05,30,16,20,12.10
2010,05,30,16,21,12.00
2010,05,30,16,22,12.00
2010,05,30,16,23,12.00
2010,05,30,16,24,12.00
2010,05,30,16,25,12.10
2010,05,30,16,26,12.10
2010,05,30,16,27,12.10
2010,05,30,16,28,12.10
2010,05,30,16,29,12.00
2010,05,30,16,30,12.00
2010,05,30,16,31,12.00
2010,05,30,16,32,12.10
2010,05,30,16,33,12.10
2010,05,30,16,34,12.10
2010,05,30,16,35,12.00
2010,05,30,16,36,12.00
2010,05,30,16,37,12.00
2010,05,30,16,38,12.10
2010,05,30,16,39,12.10
2010,05,30,16,40,12.10
2010,05,30,16,41,12.10
2010,05,30,16,42,12.10
2010,05,30,16,43,12.10
2010,05,30,16,44,12.10
2010,05,30,16,45,12.10
2010,05,30,16,46,12.00
2010,05,30,16,47,12.00
2010,05,30,16,48,12.00
2010,05,30,16,49,12.10
2010,05,30,16,50,12.10
2010,05,30,16,51,12.10
2010,05,30,16,52,12.00
2010,05,30,16,53,12.00
2010,05,30,16,54,12.00
2010,05,30,16,55,12.00
2010,05,30,16,56,12.00
2010,05,30,16,57,12.00
2010,05,30,16,58,12.00
2010,05,30,16,59,12.10
2010,05,30,17,00,12.10
2010,05,30,17,01,12.10
2010,05,30,17,02,12.00
2010,05,30,17,03,12.00
2010,05,30,17,04,12.00
2010,05,30,17,05,12.00
2010,05,30,17,06,12.00
2010,05,30,17,07,12.00
2010,05,30,17,08,12.10
2010,05,30,17,09,12.10
2010,05,30,17,10,12.10
2010,05,30,17,11,12.10
2010,05,30,17,12,12.10
2010,05,30,17,13,12.20
2010,05,30,17,14,12.20
2010,05,30,17,15,12.20
2010,05,30,17,16,12.20
2010,05,30,17,17,12.20
2010,05,30,17,18,12.30
2010,05,30,17,19,12.30
2010,05,30,17,20,12.30
2010,05,30,17,21,12.30
2010,05,30,17,22,12.30
2010,05,30,17,23,12.30
2010,05,30,17,24,12.30
2010,05,30,17,25,12.30
2010,05,30,17,26,12.30
2010,05,30,17,27,12.30
2010,05,30,17,28,12.30
2010,05,30,17,29,12.30
2010,05,30,17,30,12.30
2010,05,30,17,31,12.30
2010,05,30,17,32,12.30
2010,05,30,17,33,12.30
2010,05,30,17,34,12.30
2010,05,30,17,35,12.30
2010,05,30,17,36,12.30
2010,05,30,17,37,12.30
2010,05,30,17,38,12.30
2010,05,30,17,39,12.30
2010,05,30,17,40,12.30